Regional Weather Roundup
Issued by NWS

Home | Current Version | Previous Version | Graphics & Text | Print | Product List | Glossary On
Versions: 1 2 3 4 5 6 7 8 9 10 11 12 13 14 15 16 17 18 19 20 21 22 23 24 25 26 27 28 29 30 31 32 33 34 35 36 37 38 39 40 41 42 43 44 45 46 47 48 49 50
000
ASUS43 KFSD 301202
RWRSD

WEATHER ROUNDUP FOR SOUTH DAKOTA
NATIONAL WEATHER SERVICE SIOUX FALLS SD
700 AM CDT SAT MAY 30 2015

NOTE: "FAIR" INDICATES FEW OR NO CLOUDS BELOW 12,000 FEET WITH NO
SIGNIFICANT WEATHER AND/OR OBSTRUCTIONS TO VISIBILITY.


SDZ001>005-009-010-012>017-301300-
NORTHWEST AND NORTH CENTRAL SOUTH DAKOTA

CITY           SKY/WX    TMP DP  RH WIND       PRES   REMARKS
BUFFALO          N/A     37  33  85 E8        30.22S
FAITH            N/A     40  34  79 SE9       30.31R
MOBRIDGE       CLEAR     39  35  86 CALM      30.35R
$$

SDZ012>016-024>037-041>051-057-063-072>074-301300-
SOUTHWEST AND SOUTH CENTRAL SOUTH DAKOTA

CITY           SKY/WX    TMP DP  RH WIND       PRES   REMARKS
RAPID CTY ARPT CLEAR     36  34  92 SE3       30.30S
PIERRE         CLEAR     38  34  85 E5        30.34R
CUSTER         FOG       32  31  96 S5        30.28S VSB<1/4 WCI  27
ELLSWORTH AFB  CLEAR     37  35  94 S6        30.29S
PHILIP         MOCLDY    37  36  96 W5        30.34R
PINE RIDGE     CLEAR     32  30  92 CALM      30.32R
WINNER         FAIR      38  35  89 N5        30.32S
$$

SDZ004>011-016>023-039-040-301300-
NORTHEAST SOUTH DAKOTA

CITY           SKY/WX    TMP DP  RH WIND       PRES   REMARKS
ABERDEEN       SUNNY     39  30  70 NE13      30.36R
WATERTOWN      SUNNY     37  31  78 N12       30.28R
BROOKINGS      SUNNY     39  34  81 N13       30.27R
SISSETON         N/A     37  32  82 N16       30.33R
$$

SDZ017-020-022-023-036>040-048>070-301300-
SOUTHEAST SOUTH DAKOTA

CITY           SKY/WX    TMP DP  RH WIND       PRES   REMARKS
SIOUX FALLS    PTSUNNY   43  38  82 N10       30.24R
HURON          CLEAR     39  34  82 N14       30.32R
CHAMBERLAIN    CLEAR     40  35  84 N9        30.33R
MITCHELL       CLEAR     41  38  89 N9        30.30R
YANKTON        PTCLDY    45  39  81 N16       30.24R
$$

ABBREVIATIONS USED IN REMARKS
   TC - TEMPERATURE IN CELSIUS
  WCI - WIND CHILL INDEX
   HX - HEAT INDEX
  VSB - VISIBILITY




USA.gov is the U.S. government's official web portal to all federal, state and local government web resources and services.